Starlink 31923

operational
NORAD ID: 60600 Int'l Des: 2024-150 Owner: SPXS Country: US Constellation: starlink
LEOCIRCULAR

Starlink 31923について

説明を読み込み中...

リアルタイム位置

3D地球を読み込み中...

次回通過

高度履歴

Altitude vs Time

uPlot chart will show altitude changes over time

軌道要素

1 60600U 24150T 25259.65493008 -.00000339 00000-0 67221-6 0 9992
2 60600 53.1629 35.5585 0001232 82.1796 277.9345 15.30184586 61399
Epoch: Sep 16, 2025 • Age: 34 hours

現在のステータス

高度 477.7 km
速度 7.63 km/s
衛星直下点 -8.29°S, 6.99°W
打ち上げ日 Aug 20, 2024
運用期間 1 years
タイプ internet

技術仕様

分類 Payload
質量 730.00 kg
乾燥質量 700.00 kg
総質量 730.00 kg
長さ 0.30 m
直径 4.10 m
スパン 29.00 m
形状 Box + pan
製造者 SPXS
バスタイプ Starlink V2M
フェーズステータス In Orbit
所有者/国 SPXS/US

大規模コンステレーション

Loading constellations...